CET,Max TemperatureF,Mean TemperatureF,Min TemperatureF,Max Dew PointF,MeanDew PointF,Min DewpointF,Max Humidity, Mean Humidity, Min Humidity, Max Sea Level PressureIn, Mean Sea Level PressureIn, Min Sea Level PressureIn, Max VisibilityMiles, Mean VisibilityMiles, Min VisibilityMiles, Max Wind SpeedMPH, Mean Wind SpeedMPH, Max Gust SpeedMPH,PrecipitationIn, CloudCover, Events, WindDirDegrees
2014-1-1,50,46,42,45,42,39,93,83,65,29.88,29.70,29.42,19,9,6,25,15,40,0.01,6,Rain,186
2014-1-2,52,50,47,46,43,40,93,76,55,29.71,29.57,29.36,19,8,3,28,19,43,0.01,5,Rain,211
2014-1-3,56,52,47,48,43,36,88,71,46,29.86,29.69,29.59,19,9,6,28,20,41,0.00,6,Rain,208
2014-1-4,55,50,44,45,42,39,87,76,55,29.85,29.56,29.39,19,9,6,18,14,31,0.01,6,Rain,189
2014-1-5,48,44,39,45,39,35,93,80,61,29.85,29.74,29.56,19,10,2,20,12,,0.00,6,Rain,200
2014-1-6,55,50,46,50,48,44,100,82,64,29.80,29.71,29.65,19,8,2,23,18,,0.02,6,Rain,200
2014-1-7,57,53,49,49,46,45,88,78,56,29.98,29.91,29.83,19,10,6,23,16,24,0.02,6,Rain,201
2014-1-8,57,52,46,49,47,43,93,81,66,30.14,30.05,29.95,19,9,6,20,11,23,0.03,6,Rain,190
2014-1-9,53,50,44,48,44,39,88,77,64,30.04,29.91,29.83,16,9,6,22,14,31,0.04,5,Rain,224
2014-1-10,43,40,38,41,39,37,94,89,79,30.15,30.08,30.04,16,5,0,10,7,29,0.02,6,Fog,191
2014-1-11,46,40,32,45,40,32,100,94,86,30.30,30.12,30.01,9,3,0,12,5,,0.04,6,Fog-Rain,267
2014-1-12,43,37,31,43,37,30,100,97,91,30.31,30.14,29.95,5,1,0,15,8,,0.00,7,Fog,125
2014-1-13,50,46,41,45,42,39,100,89,73,29.97,29.88,29.71,19,7,4,12,9,20,0.04,5,Rain,191
2014-1-14,46,42,37,41,37,32,93,81,57,29.90,29.72,29.56,19,9,3,18,12,,0.02,5,Rain,231
2014-1-15,47,42,36,46,40,32,100,93,77,29.89,29.75,29.62,19,4,1,16,11,,0.16,8,Rain,185
2014-1-16,49,47,45,46,44,41,100,88,70,29.63,29.50,29.44,19,8,4,23,14,31,0.20,7,Rain,193
2014-1-17,52,47,42,41,39,34,87,72,53,29.55,29.49,29.44,19,11,6,21,16,36,0.00,5,Rain,191
2014-1-18,51,45,39,41,37,34,87,74,51,29.55,29.42,29.30,19,15,12,12,8,,0.00,8,,127
2014-1-19,48,44,41,45,41,37,100,84,67,29.60,29.44,29.30,19,7,2,10,7,,0.04,6,Rain,239
2014-1-20,46,43,39,40,38,37,93,83,69,29.91,29.74,29.59,16,8,4,9,6,,0.00,6,Rain,318
2014-1-21,39,36,34,37,35,32,100,90,79,29.99,29.94,29.89,9,4,0,12,7,21,0.00,7,Fog,210
2014-1-22,40,36,33,38,34,32,93,86,71,29.95,29.87,29.83,9,6,2,14,10,,0.02,7,Rain,159
2014-1-23,47,43,39,45,40,36,100,90,71,30.02,29.96,29.92,12,4,0,21,8,28,0.12,6,Fog-Rain,237
2014-1-24,45,41,37,39,36,34,93,83,66,30.06,30.02,29.98,12,8,6,9,7,,0.00,6,,186
2014-1-25,48,42,36,45,37,34,93,84,55,30.11,30.03,29.95,12,7,4,21,9,24,0.01,7,Rain,186
2014-1-26,50,44,38,48,39,32,100,82,51,30.11,29.79,29.42,19,7,1,21,12,33,0.35,6,Rain,229
2014-1-27,44,40,37,36,34,31,87,73,59,29.52,29.46,29.42,19,9,6,24,17,34,0.02,5,Rain,232
2014-1-28,43,40,36,39,36,33,93,84,72,29.47,29.35,29.27,19,9,6,17,14,29,0.02,6,Rain,176
2014-1-29,41,39,37,39,36,32,93,86,67,29.50,29.32,29.24,16,6,2,16,12,,0.08,7,Rain-Snow,128
2014-1-30,44,42,39,41,39,37,100,89,78,29.71,29.60,29.50,12,6,2,8,6,,0.00,6,Rain,154
2014-1-31,46,40,33,40,36,32,100,84,58,29.80,29.70,29.50,19,5,0,21,7,23,0.20,5,Fog-Rain,164